Location: Carnoy
(49.9849°N, 2.7558°E)
Time: 13:19:06
(UTC+00:00)

Meteor 2-10 Rocket - Pass Details

Date: 24 January 2020
Orbit: 733 x 885 km, 81.2° (Epoch: 20 February)

Event Time Altitude Azimuth Distance (km) Brightness Sun altitude
Rises 17:45:56 0° 349° (NNW) 3,340 6.8 -12.2°
Reaches altitude 10° 17:48:23 10° 351° (N) 2,381 6.0 -12.6°
Maximum altitude 17:53:44 70° 75° (ENE) 826 3.4 -13.5°
Drops below altitude 10° 17:58:50 10° 160° (SSE) 2,274 5.9 -14.2°
Sets 18:01:08 0° 163° (SSE) 3,179 6.7 -14.6°
